Location: Catacaguana
(10.4120°N, 66.7591°W)
Time: 19:38:32
(UTC+00:00)

FengYun 1-2 T - Pass Details

Date: 03 February 2023
Orbit: 847 x 880 km, 98.7° (Epoch: 24 March)

Event Time Altitude Azimuth Distance (km) Brightness Sun altitude
Rises 08:58:23 0° 32° (NNE) 3,459 7.6 -27.3°
Reaches altitude 10° 09:01:08 10° 44° (NE) 2,525 7.0 -26.7°
Maximum altitude 09:05:50 28° 101° (E) 1,605 6.3 -25.5°
Drops below altitude 10° 09:10:32 10° 158° (SSE) 2,531 7.1 -24.4°
Sets 09:13:15 0° 169° (S) 3,469 7.7 -23.8°
